Location: Unspecified
(49.9820°N, 20.4363°E)
Time: 14:34:39
(UTC+01:00)

ISS - Visible Passes

Search period start: 11 December 2018 00:00
Search period end: 21 December 2018 00:00
Orbit: 401 x 408 km, 51.6° (Epoch: 12 December)

Date Brightness Start Highest point End Pass type
(mag) Time Alt. Az. Time Alt. Az. Time Alt. Az.
11 Dec -3.0 16:39:03 10° WNW 16:42:16 53° SSW 16:45:27 10° SE visible
11 Dec -0.7 18:16:52 10° WSW 18:18:09 12° SW 18:19:27 10° SSW visible
12 Dec -1.1 17:23:47 10° W 17:26:12 19° SW 17:28:36 10° S visible
13 Dec -1.7 16:31:15 10° W 16:34:10 30° SSW 16:37:03 10° SSE visible
15 Dec -0.6 16:23:47 10° W 16:25:54 16° SW 16:28:02 10° S visible
